カタログに戻る

STARLINK-38130

運用中通信SSO
NORAD 100187·PAYLOAD·🇺🇸 United States

打ち上げ Aug 1, 2026 から Vandenberg Space Force Base

Loading…

次のパス (今後24時間)

TLE

最新Source: Space-Track

元期: Sep 14, 2026, 12:50 UTC

1 A0187U 26175J   26257.53513652  .00231341  00000-0  15095-2 0  9995
2 A0187  97.2826  99.6205 0001420 122.3554 237.7848 15.75200837  8232

AllMySatでSTARLINK-38130をリアルタイム追跡

Download on the App Store